TimeEDT,TemperatureF,Dew PointF,Humidity,Sea Level PressureIn,VisibilityMPH,Wind Direction,Wind SpeedMPH,Gust SpeedMPH,PrecipitationIn,Events,Conditions,WindDirDegrees,DateUTC
12:53 AM,64.9,57.9,78,30.24,10.0,SSW,4.6,-,N/A,,Clear,210,2013-06-22 04:53:00
1:53 AM,63.0,60.1,90,30.24,10.0,Calm,Calm,-,N/A,,Clear,0,2013-06-22 05:53:00
2:53 AM,62.1,59.0,90,30.25,10.0,Calm,Calm,-,N/A,,Clear,0,2013-06-22 06:53:00
3:53 AM,60.1,57.9,93,30.25,9.0,Calm,Calm,-,N/A,,Partly Cloudy,0,2013-06-22 07:53:00
4:53 AM,62.1,57.0,84,30.25,10.0,Calm,Calm,-,N/A,,Scattered Clouds,0,2013-06-22 08:53:00
5:53 AM,60.1,57.9,93,30.25,6.0,West,4.6,-,N/A,,Clear,260,2013-06-22 09:53:00
6:53 AM,62.1,57.9,86,30.25,10.0,Calm,Calm,-,N/A,,Partly Cloudy,0,2013-06-22 10:53:00
7:09 AM,62.6,59.0,88,30.27,10.0,Calm,Calm,-,N/A,,Mostly Cloudy,0,2013-06-22 11:09:00
7:20 AM,62.6,60.8,94,30.26,10.0,Calm,Calm,-,N/A,,Overcast,0,2013-06-22 11:20:00
7:53 AM,64.9,61.0,87,30.25,10.0,NW,3.5,-,N/A,,Overcast,320,2013-06-22 11:53:00
8:53 AM,69.1,64.0,84,30.24,10.0,SSE,5.8,-,N/A,,Overcast,160,2013-06-22 12:53:00
9:41 AM,71.6,64.4,78,30.26,10.0,Variable,3.5,-,N/A,,Overcast,0,2013-06-22 13:41:00
9:53 AM,72.0,64.9,78,30.24,10.0,SSW,4.6,-,N/A,,Overcast,200,2013-06-22 13:53:00
10:45 AM,75.2,66.2,73,30.24,10.0,Calm,Calm,-,N/A,,Scattered Clouds,0,2013-06-22 14:45:00
10:53 AM,75.9,66.0,71,30.22,10.0,SW,4.6,-,N/A,,Partly Cloudy,220,2013-06-22 14:53:00
11:53 AM,78.1,66.0,66,30.24,10.0,South,5.8,-,N/A,,Scattered Clouds,180,2013-06-22 15:53:00
12:50 PM,78.8,64.4,61,30.25,10.0,Calm,Calm,-,N/A,,Overcast,0,2013-06-22 16:50:00
12:53 PM,78.1,64.9,64,30.24,10.0,Calm,Calm,-,N/A,,Overcast,0,2013-06-22 16:53:00
1:04 PM,78.8,66.2,65,30.26,10.0,Variable,4.6,-,N/A,,Overcast,0,2013-06-22 17:04:00
1:53 PM,80.1,66.0,62,30.23,10.0,SE,9.2,-,N/A,,Clear,140,2013-06-22 17:53:00
2:53 PM,81.0,64.9,58,30.20,10.0,South,5.8,-,N/A,,Clear,190,2013-06-22 18:53:00
3:53 PM,82.9,64.0,53,30.18,10.0,South,4.6,-,N/A,,Partly Cloudy,190,2013-06-22 19:53:00
4:53 PM,84.9,63.0,48,30.15,10.0,Calm,Calm,-,N/A,,Clear,0,2013-06-22 20:53:00
5:53 PM,84.9,64.9,51,30.13,10.0,SE,8.1,-,N/A,,Scattered Clouds,130,2013-06-22 21:53:00
6:53 PM,82.0,66.9,60,30.14,10.0,SSE,11.5,20.7,N/A,,Mostly Cloudy,150,2013-06-22 22:53:00
7:53 PM,77.0,66.9,71,30.15,10.0,SE,8.1,-,N/A,,Partly Cloudy,140,2013-06-22 23:53:00
8:53 PM,75.0,66.0,73,30.16,10.0,SSE,5.8,-,N/A,,Clear,160,2013-06-23 00:53:00
9:36 PM,73.4,66.2,78,30.19,10.0,SSE,3.5,-,N/A,,Mostly Cloudy,160,2013-06-23 01:36:00
9:53 PM,73.9,66.9,79,30.18,10.0,Calm,Calm,-,N/A,,Overcast,0,2013-06-23 01:53:00
10:53 PM,73.0,68.0,84,30.19,10.0,SSE,4.6,-,N/A,,Overcast,150,2013-06-23 02:53:00
11:13 PM,71.6,66.2,83,30.21,10.0,SSE,6.9,-,N/A,,Mostly Cloudy,160,2013-06-23 03:13:00
11:53 PM,71.1,66.9,87,30.20,10.0,Calm,Calm,-,N/A,,Scattered Clouds,0,2013-06-23 03:53:00